DLH2322 EDDM-ELLX

Flight info

Callsign DLH2322
Flight time N/A
Altitude 24000
Route GIVMI6Q GIVMI Y101 ERNAS T161 GOLMO DCT AKANU L603 RATIM DCT NOKDI Z104 AGBUL T894 BITBU Z110 BETEX BETEX4K
Aircraft A320/M-SDE3FGHIRWY/LB1

Departure

Time 2026-05-01 08:43
Airport Munich Airport (EDDM)

Arrival

Time N/A
Airport Luxembourg-Findel International Airport (ELLX)
Time Latitude Longitude Altitude Speed Heading
2026-05-01 08:16 48.35498 11.79298 1476 ft 0 kts 263°
2026-05-01 08:17 48.35456 11.79300 1477 ft 0 kts 263°
2026-05-01 08:32 48.35457 11.79315 1473 ft 4 kts 263°
2026-05-01 08:33 48.35460 11.79355 1475 ft 4 kts 263°
2026-05-01 08:33 48.35464 11.79395 1477 ft 4 kts 263°
2026-05-01 08:33 48.35467 11.79436 1480 ft 4 kts 263°
2026-05-01 08:33 48.35469 11.79468 1485 ft 4 kts 269°
2026-05-01 08:34 48.35465 11.79505 1482 ft 4 kts 306°
2026-05-01 08:34 48.35447 11.79523 1477 ft 3 kts 353°
2026-05-01 08:34 48.35430 11.79526 1483 ft 0 kts 353°
2026-05-01 08:36 48.35451 11.79522 1476 ft 17 kts 353°
2026-05-01 08:36 48.35470 11.79519 1482 ft 9 kts 354°
2026-05-01 08:37 48.35572 11.79503 1485 ft 19 kts 354°
2026-05-01 08:37 48.35692 11.79480 1476 ft 14 kts 347°
2026-05-01 08:37 48.35799 11.79461 1479 ft 19 kts 353°
2026-05-01 08:37 48.35900 11.79391 1482 ft 19 kts 307°
2026-05-01 08:38 48.35999 11.79327 1485 ft 7 kts 357°
2026-05-01 08:38 48.36014 11.79326 1483 ft 0 kts 355°
2026-05-01 08:39 48.36019 11.79325 1485 ft 4 kts 355°
2026-05-01 08:39 48.36074 11.79297 1480 ft 14 kts 317°
2026-05-01 08:39 48.36076 11.79123 1474 ft 18 kts 263°
2026-05-01 08:40 48.36054 11.78798 1485 ft 35 kts 262°
2026-05-01 08:40 48.36019 11.78394 1477 ft 36 kts 264°
2026-05-01 08:40 48.36001 11.78100 1481 ft 26 kts 261°
2026-05-01 08:41 48.35977 11.77785 1474 ft 32 kts 262°
2026-05-01 08:41 48.35964 11.77630 1481 ft 18 kts 266°
2026-05-01 08:41 48.35945 11.77391 1478 ft 29 kts 263°
2026-05-01 08:41 48.35922 11.77105 1476 ft 25 kts 264°
2026-05-01 08:42 48.35933 11.76864 1484 ft 25 kts 305°
2026-05-01 08:42 48.36068 11.76811 1485 ft 13 kts 353°
2026-05-01 08:42 48.36196 11.76798 1485 ft 24 kts
2026-05-01 08:42 48.36294 11.76967 1485 ft 25 kts 82°
2026-05-01 08:43 48.36330 11.77455 1485 ft 79 kts 84°
2026-05-01 08:43 48.36416 11.78564 1485 ft 133 kts 83°
2026-05-01 08:43 48.36545 11.80157 1583 ft 167 kts 82°
2026-05-01 08:43 48.36714 11.81887 2300 ft 167 kts 82°
2026-05-01 08:44 48.36853 11.83638 3002 ft 174 kts 85°
2026-05-01 08:44 48.37127 11.85515 3314 ft 198 kts 63°
2026-05-01 08:44 48.38270 11.86904 3685 ft 234 kts 23°
2026-05-01 08:44 48.39985 11.87293 4164 ft 262 kts
2026-05-01 08:45 48.41795 11.86654 4967 ft 279 kts 332°
2026-05-01 08:45 48.43220 11.84620 5824 ft 287 kts 310°
2026-05-01 08:45 48.44463 11.82268 6757 ft 287 kts 310°
2026-05-01 08:45 48.45719 11.79896 7573 ft 291 kts 311°
2026-05-01 08:46 48.47000 11.77525 8418 ft 293 kts 312°
2026-05-01 08:46 48.48312 11.75152 9257 ft 296 kts 313°
2026-05-01 08:46 48.49629 11.72804 10057 ft 299 kts 313°
2026-05-01 08:46 48.50988 11.70404 10827 ft 301 kts 313°
2026-05-01 08:47 48.52358 11.67991 11587 ft 304 kts 313°
2026-05-01 08:47 48.53737 11.65561 12313 ft 307 kts 313°
2026-05-01 08:47 48.55135 11.63097 13048 ft 310 kts 313°
2026-05-01 08:47 48.56549 11.60605 13782 ft 314 kts 314°
2026-05-01 08:48 48.57985 11.58074 14294 ft 325 kts 314°
2026-05-01 08:48 48.59511 11.55391 14424 ft 347 kts 314°
2026-05-01 08:48 48.61126 11.52543 14547 ft 367 kts 313°
2026-05-01 08:48 48.62808 11.49556 14899 ft 378 kts 313°
2026-05-01 08:49 48.64515 11.46504 15454 ft 382 kts 313°
2026-05-01 08:49 48.66240 11.43412 16028 ft 386 kts 313°
2026-05-01 08:49 48.67980 11.40298 16635 ft 389 kts 313°
2026-05-01 08:49 48.69785 11.37248 17195 ft 390 kts 320°
2026-05-01 08:50 48.71893 11.34673 17737 ft 389 kts 329°
2026-05-01 08:50 48.74160 11.32393 18298 ft 392 kts 330°
2026-05-01 08:50 48.76436 11.30099 18813 ft 395 kts 330°
2026-05-01 08:50 48.78737 11.27773 19287 ft 398 kts 330°
2026-05-01 08:51 48.81040 11.25434 19776 ft 400 kts 330°
2026-05-01 08:51 48.83366 11.23067 20275 ft 403 kts 329°
2026-05-01 08:51 48.85588 11.20411 20754 ft 409 kts 321°
2026-05-01 08:51 48.87688 11.17488 21225 ft 411 kts 321°
2026-05-01 08:52 48.89800 11.14544 21698 ft 413 kts 321°
2026-05-01 08:52 48.91923 11.11580 22172 ft 415 kts 321°
2026-05-01 08:52 48.93998 11.08581 22622 ft 419 kts 316°
2026-05-01 08:52 48.95814 11.05072 23067 ft 426 kts 306°
2026-05-01 08:53 48.97216 11.01085 23483 ft 431 kts 295°
2026-05-01 08:53 48.98224 10.96770 23947 ft 435 kts 291°
2026-05-01 08:53 48.99193 10.92389 24298 ft 436 kts 291°
2026-05-01 08:53 49.00165 10.88011 24398 ft 439 kts 291°
2026-05-01 08:54 49.01156 10.83567 24421 ft 442 kts 291°
2026-05-01 08:54 49.02140 10.79149 24434 ft 444 kts 291°
2026-05-01 08:54 49.03142 10.74647 24432 ft 456 kts 291°
2026-05-01 08:54 49.04243 10.70062 24433 ft 464 kts 296°
2026-05-01 08:55 49.05793 10.65716 24431 ft 467 kts 306°
2026-05-01 08:55 49.07797 10.61838 24418 ft 465 kts 316°
2026-05-01 08:55 49.10108 10.58380 24430 ft 465 kts 318°
2026-05-01 08:55 49.12434 10.54946 24431 ft 465 kts 318°
2026-05-01 08:56 49.14762 10.51496 24438 ft 470 kts 318°
2026-05-01 08:56 49.17127 10.47986 24417 ft 476 kts 318°
2026-05-01 08:56 49.19502 10.44452 24417 ft 478 kts 318°
2026-05-01 08:56 49.21885 10.40894 24414 ft 478 kts 318°
2026-05-01 08:57 49.24198 10.37224 24415 ft 480 kts 312°
2026-05-01 08:57 49.26323 10.33275 24409 ft 481 kts 311°
2026-05-01 08:57 49.28448 10.29305 24393 ft 481 kts 311°
2026-05-01 08:57 49.30567 10.25340 24385 ft 481 kts 311°
2026-05-01 08:58 49.32679 10.21377 24389 ft 480 kts 311°
2026-05-01 08:58 49.34791 10.17403 24384 ft 480 kts 311°
2026-05-01 08:58 49.36896 10.13439 24382 ft 480 kts 311°
2026-05-01 08:58 49.39005 10.09468 24380 ft 480 kts 311°
2026-05-01 08:59 49.41113 10.05491 24376 ft 480 kts 311°
2026-05-01 08:59 49.43222 10.01510 24376 ft 480 kts 311°
2026-05-01 08:59 49.45301 9.97580 24378 ft 480 kts 311°
2026-05-01 08:59 49.47402 9.93599 24379 ft 480 kts 311°
2026-05-01 09:00 49.49502 9.89611 24374 ft 480 kts 311°
2026-05-01 09:00 49.51600 9.85620 24364 ft 480 kts 311°
2026-05-01 09:00 49.53701 9.81615 24363 ft 480 kts 311°
2026-05-01 09:00 49.55795 9.77613 24363 ft 480 kts 311°
2026-05-01 09:01 49.57891 9.73597 24366 ft 480 kts 310°
2026-05-01 09:01 49.59988 9.69574 24364 ft 480 kts 310°
2026-05-01 09:01 49.62077 9.65560 24367 ft 480 kts 310°
2026-05-01 09:01 49.64175 9.61540 24370 ft 481 kts 311°
2026-05-01 09:02 49.66272 9.57523 24373 ft 481 kts 311°
2026-05-01 09:02 49.68248 9.53341 24375 ft 483 kts 303°
2026-05-01 09:02 49.69715 9.48741 24368 ft 485 kts 292°
2026-05-01 09:02 49.70677 9.43744 24377 ft 486 kts 286°
2026-05-01 09:03 49.71526 9.38696 24378 ft 486 kts 287°
2026-05-01 09:03 49.72387 9.33630 24383 ft 485 kts 286°
2026-05-01 09:03 49.73245 9.28594 24389 ft 485 kts 286°
2026-05-01 09:03 49.74105 9.23545 24391 ft 485 kts 286°
2026-05-01 09:04 49.74964 9.18500 24388 ft 485 kts 287°
2026-05-01 09:04 49.75821 9.13445 24392 ft 485 kts 286°
2026-05-01 09:04 49.76669 9.08402 24380 ft 485 kts 287°
2026-05-01 09:04 49.77517 9.03347 24371 ft 485 kts 286°
2026-05-01 09:05 49.78361 8.98291 24372 ft 485 kts 286°
2026-05-01 09:05 49.79201 8.93239 24371 ft 485 kts 285°
2026-05-01 09:05 49.80038 8.88179 24374 ft 486 kts 285°
2026-05-01 09:05 49.80876 8.83114 24372 ft 486 kts 285°
2026-05-01 09:06 49.81718 8.78025 24373 ft 486 kts 285°
2026-05-01 09:06 49.82546 8.73012 24374 ft 486 kts 285°
2026-05-01 09:06 49.83392 8.67885 24381 ft 486 kts 285°